Home   Weather   Bellingham   Past weeks

Flag for USA Past Weather in Bellingham, Washington, USA — Yesterday and Last 2 Weeks

Now
48 °F

Passing clouds.


Feels Like: 43 °F
Forecast: 45 / 49 °F
Wind: 13 mph from South

Location: Bellingham International Airport

Current Time: Dec 2, 2016 at 8:40:04 pm

Latest Report: Dec 2, 2016 at 7:53 pm


Visibility: 10 mi

Pressure: 30.08 "Hg

Humidity: 86%

Dew Point: 44 °F

Location of BellinghamLocation

Past Weather in Bellingham — Graph

°F

Bellingham Temperature Yesterday

Maximum temperature yesterday: 46 °F (at 1:53 pm)
Minimum temperature yesterday: 35 °F (at 8:01 am)
Average temperature yesterday: 42 °F

High & Low Weather Summary for the Past Weeks

 TemperatureHumidityPressure
High58 °F (Nov 20, 3:53 am)100% (Nov 22, 10:59 pm)30.34 "Hg (Nov 22, 10:59 pm)
Low35 °F (Dec 1, 8:01 am)52% (Nov 22, 7:53 am)29.43 "Hg (Nov 27, 7:53 pm)
Average47 °F83%29.89 "Hg
* Reported Nov 17 6:53 pm — Dec 2 6:55 pm, Bellingham, Weather by CustomWeather, © 2016

Note: Actual official high and low records may vary slightly from our data, if they occured in-between our weather recording intervals... More about our weather records

Advertising

Bellingham Weather History for the Previous 24 Hours

Scroll right to see more
 ConditionsComfort  
Time TempWeatherWind HumidityBarometerVisibility
6:55 pm
Fri, Dec 2
48 °FPassing clouds.15 mph86%30.04 "Hg10 mi
5:53 pm47 °FOvercast.10 mph93%30.05 "Hg10 mi
4:53 pm47 °FLight rain. Fog.17 mph97%30.07 "Hg6 mi
3:53 pm48 °FLight rain. Mostly cloudy.20 mph89%30.06 "Hg8 mi
2:53 pm49 °FLight rain. Overcast.22 mph84%30.06 "Hg10 mi
1:53 pm49 °FLight rain. Mostly cloudy.24 mph80%30.06 "Hg10 mi
12:53 pm49 °FOvercast.26 mph77%30.09 "Hg10 mi
11:53 am49 °FOvercast.23 mph77%30.12 "Hg10 mi
10:53 am48 °FOvercast.21 mph80%30.15 "Hg10 mi
9:53 am48 °FOvercast.21 mph80%30.18 "Hg10 mi
8:53 am47 °FLight rain. Mostly cloudy.22 mph86%30.19 "Hg10 mi
7:53 am46 °FLight rain. Overcast.13 mph89%30.23 "Hg9 mi
6:53 am46 °FLight rain. Overcast.13 mph86%30.24 "Hg8 mi
5:53 am46 °FLight rain. Mostly cloudy.10 mph89%30.26 "Hg7 mi
4:53 am47 °FLight rain. Overcast.13 mph83%30.27 "Hg10 mi
3:53 am46 °FLight rain. Overcast.12 mph83%30.28 "Hg10 mi
2:53 am46 °FLight rain. Overcast.10 mph83%30.30 "Hg10 mi
1:53 am45 °FOvercast.9 mph82%30.31 "Hg10 mi
12:53 am45 °FOvercast.No wind82%30.32 "Hg10 mi
11:53 pm
Thu, Dec 1
45 °FLight rain. Overcast.6 mph82%30.33 "Hg8 mi
10:53 pm44 °FOvercast.6 mph82%30.33 "Hg10 mi
9:53 pm44 °FMostly cloudy.8 mph82%30.32 "Hg10 mi
8:53 pm44 °FMostly cloudy.7 mph82%30.34 "Hg10 mi
Weather by CustomWeather, © 2016

See weather overviewHow to use our weather pages